Location: ?????????
(54.7630°N, 39.4991°E)
Time: 07:54:58
(UTC+00:00)

CSL-04 Rocket - Pass Details

Date: 14 April 2026
Orbit: 804 x 858 km, 98.7° (Epoch: 14 May)

Event Time Altitude Azimuth Distance (km) Brightness Sun altitude
Rises 17:00:49 0° 168° (SSE) 3,414 6.5 -5.8°
Reaches altitude 10° 17:03:12 10° 171° (S) 2,486 5.8 -6.1°
Maximum altitude 17:08:43 73° 255° (WSW) 903 4.1 -6.8°
Drops below altitude 10° 17:14:18 10° 341° (NNW) 2,506 6.9 -7.5°
Sets 17:16:42 0° 344° (NNW) 3,444 7.6 -7.8°
